Hourly Weather Ludwinowo

Today, 10 May, Monday

Time Temperature Precipitation Wind Pressure Humidity
00:00 +10°C° 0 mm 4 mps 753 mmHg 86%
01:00 +8°C° 0 mm 4 mps 753 mmHg 90%
02:00 +8°C° 0 mm 4 mps 753 mmHg 91%
03:00 +7°C° 0 mm 4 mps 753 mmHg 92%
04:00 +7°C° 0 mm 4 mps 753 mmHg 93%
05:00 +8°C° 0 mm 5 mps 753 mmHg 88%
06:00 +10°C° 0 mm 5 mps 753 mmHg 82%
07:00 +13°C° 0 mm 6 mps 753 mmHg 76%
08:00 +15°C° 0 mm 6 mps 753 mmHg 71%
09:00 +16°C° 0 mm 7 mps 753 mmHg 65%
10:00 +18°C° 0 mm 7 mps 753 mmHg 60%
11:00 +20°C° 0 mm 7 mps 753 mmHg 59%
12:00 +21°C° 0 mm 7 mps 753 mmHg 58%
13:00 +22°C° 0 mm 7 mps 753 mmHg 57%
14:00 +21°C° 0 mm 7 mps 753 mmHg 59%
15:00 +21°C° 0 mm 7 mps 752 mmHg 62%
16:00 +21°C° 0 mm 7 mps 752 mmHg 64%
17:00 +20°C° 0 mm 6 mps 752 mmHg 68%
18:00 +17°C° 0 mm 6 mps 753 mmHg 72%
19:00 +16°C° 0 mm 6 mps 753 mmHg 77%
20:00 +15°C° 0 mm 6 mps 753 mmHg 77%
21:00 +15°C° 0 mm 6 mps 753 mmHg 78%
22:00 +14°C° 0 mm 6 mps 753 mmHg 79%
23:00 +13°C° 0 mm 5 mps 753 mmHg 81%

Tomorrow, 11 May, Tuesday

Time Temperature Precipitation Wind Pressure Humidity
00:00 +12°C° 0 mm 5 mps 753 mmHg 83%
01:00 +12°C° 0 mm 5 mps 753 mmHg 85%
02:00 +10°C° 0 mm 5 mps 753 mmHg 84%
03:00 +10°C° 0 mm 6 mps 753 mmHg 84%
04:00 +10°C° 0 mm 6 mps 752 mmHg 83%
05:00 +11°C° 0 mm 6 mps 752 mmHg 80%
06:00 +12°C° 0 mm 7 mps 752 mmHg 77%
07:00 +14°C° 0 mm 7 mps 752 mmHg 74%
08:00 +16°C° 0 mm 8 mps 752 mmHg 70%
09:00 +17°C° 0 mm 8 mps 752 mmHg 66%
10:00 +19°C° 0 mm 9 mps 752 mmHg 62%
11:00 +19°C° 0 mm 9 mps 752 mmHg 61%
12:00 +21°C° 0 mm 8 mps 752 mmHg 60%
13:00 +22°C° 0 mm 8 mps 752 mmHg 59%
14:00 +21°C° 0 mm 8 mps 751 mmHg 61%
15:00 +21°C° 0 mm 8 mps 751 mmHg 62%
16:00 +21°C° 0 mm 8 mps 751 mmHg 64%
17:00 +18°C° 0 mm 7 mps 751 mmHg 66%
18:00 +17°C° 0 mm 7 mps 751 mmHg 68%
19:00 +15°C° 0 mm 6 mps 751 mmHg 69%
20:00 +14°C° 0 mm 6 mps 751 mmHg 68%
21:00 +14°C° 0 mm 6 mps 751 mmHg 66%
22:00 +13°C° 0 mm 6 mps 751 mmHg 64%
23:00 +11°C° 0 mm 6 mps 751 mmHg 67%

Day after tomorrow, 12 May, Wednesday

Time Temperature Precipitation Wind Pressure Humidity
00:00 +11°C° 0 mm 6 mps 751 mmHg 70%
01:00 +10°C° 0 mm 5 mps 751 mmHg 73%
02:00 +10°C° 0 mm 5 mps 750 mmHg 77%
03:00 +10°C° 0 mm 5 mps 750 mmHg 81%
04:00 +10°C° 0 mm 5 mps 750 mmHg 86%
05:00 +11°C° 0 mm 6 mps 750 mmHg 83%
06:00 +14°C° 0 mm 6 mps 750 mmHg 80%
07:00 +15°C° 0 mm 7 mps 750 mmHg 77%
08:00 +17°C° 0 mm 7 mps 750 mmHg 74%
09:00 +18°C° 0 mm 8 mps 750 mmHg 70%
10:00 +20°C° 0 mm 8 mps 750 mmHg 67%
11:00 +20°C° 0 mm 8 mps 750 mmHg 65%
12:00 +20°C° 0 mm 8 mps 750 mmHg 63%
13:00 +18°C° 0 mm 8 mps 750 mmHg 61%
14:00 +18°C° 0 mm 8 mps 749 mmHg 61%
15:00 +18°C° 0 mm 7 mps 749 mmHg 61%
16:00 +18°C° 0 mm 7 mps 749 mmHg 60%
17:00 +16°C° 0 mm 6 mps 749 mmHg 63%
18:00 +15°C° 0 mm 6 mps 749 mmHg 67%
19:00 +13°C° 0 mm 5 mps 748 mmHg 70%
20:00 +12°C° 0 mm 5 mps 748 mmHg 73%
21:00 +11°C° 0 mm 4 mps 748 mmHg 77%
22:00 +10°C° 0 mm 3 mps 748 mmHg 81%
23:00 +9°C° 0 mm 3 mps 748 mmHg 82%

13 May, Thursday

Time Temperature Precipitation Wind Pressure Humidity
00:00 +9°C° 0 mm 3 mps 747 mmHg 83%
01:00 +8°C° 0 mm 3 mps 747 mmHg 84%
02:00 +8°C° 0 mm 3 mps 746 mmHg 84%
03:00 +7°C° 0 mm 2 mps 746 mmHg 84%
04:00 +7°C° 0 mm 2 mps 745 mmHg 85%
05:00 +8°C° 0 mm 2 mps 745 mmHg 82%
06:00 +9°C° 0 mm 2 mps 745 mmHg 80%
07:00 +10°C° 0 mm 2 mps 744 mmHg 78%
08:00 +10°C° 0.1 mm 2 mps 744 mmHg 79%
09:00 +10°C° 0.1 mm 2 mps 744 mmHg 79%
10:00 +12°C° 0.1 mm 2 mps 743 mmHg 79%
11:00 +13°C° 0 mm 2 mps 743 mmHg 75%
12:00 +14°C° 0 mm 2 mps 743 mmHg 70%
13:00 +15°C° 0 mm 2 mps 742 mmHg 65%
14:00 +15°C° 0 mm 2 mps 742 mmHg 67%
15:00 +15°C° 0 mm 2 mps 742 mmHg 69%
16:00 +15°C° 0 mm 2 mps 742 mmHg 71%
17:00 +15°C° 0 mm 2 mps 742 mmHg 75%
18:00 +14°C° 0 mm 2 mps 742 mmHg 80%
19:00 +13°C° 0 mm 2 mps 742 mmHg 84%
20:00 +13°C° 0 mm 2 mps 742 mmHg 87%
21:00 +12°C° 0 mm 2 mps 742 mmHg 91%
22:00 +10°C° 0 mm 2 mps 742 mmHg 94%
23:00 +10°C° 0 mm 2 mps 742 mmHg 95%

14 May, Friday

Time Temperature Precipitation Wind Pressure Humidity
00:00 +10°C° 0 mm 2 mps 742 mmHg 95%
01:00 +11°C° 0 mm 1 mps 742 mmHg 96%
02:00 +11°C° 0.4 mm 1 mps 742 mmHg 96%
03:00 +11°C° 0.4 mm 1 mps 742 mmHg 96%
04:00 +11°C° 0.4 mm 1 mps 742 mmHg 97%
05:00 +12°C° 0.1 mm 2 mps 742 mmHg 95%
06:00 +13°C° 0.1 mm 2 mps 742 mmHg 94%
07:00 +13°C° 0.1 mm 2 mps 742 mmHg 92%
08:00 +13°C° 0.2 mm 3 mps 743 mmHg 89%
09:00 +14°C° 0.2 mm 3 mps 743 mmHg 85%
10:00 +14°C° 0.2 mm 4 mps 743 mmHg 81%
11:00 +14°C° 0.2 mm 4 mps 743 mmHg 81%
12:00 +14°C° 0.2 mm 4 mps 744 mmHg 82%
13:00 +14°C° 0.2 mm 4 mps 744 mmHg 82%
14:00 +14°C° 0.2 mm 3 mps 744 mmHg 81%
15:00 +16°C° 0.2 mm 3 mps 744 mmHg 80%
16:00 +16°C° 0.2 mm 2 mps 745 mmHg 79%
17:00 +15°C° 0.1 mm 2 mps 745 mmHg 83%
18:00 +14°C° 0.1 mm 2 mps 745 mmHg 86%
19:00 +14°C° 0.1 mm 2 mps 745 mmHg 90%
20:00 +13°C° 0 mm 2 mps 745 mmHg 91%
21:00 +12°C° 0 mm 2 mps 746 mmHg 92%
22:00 +12°C° 0 mm 2 mps 746 mmHg 93%
23:00 +12°C° 0 mm 2 mps 746 mmHg 94%

15 May, Saturday

Time Temperature Precipitation Wind Pressure Humidity
00:00 +12°C° 0 mm 2 mps 746 mmHg 94%
01:00 +12°C° 0 mm 2 mps 747 mmHg 95%
02:00 +10°C° 0 mm 2 mps 747 mmHg 95%
03:00 +9°C° 0 mm 2 mps 747 mmHg 95%
04:00 +9°C° 0 mm 2 mps 748 mmHg 95%
05:00 +10°C° 0 mm 2 mps 748 mmHg 90%
06:00 +12°C° 0 mm 2 mps 748 mmHg 86%
07:00 +13°C° 0 mm 2 mps 749 mmHg 81%
08:00 +15°C° 0 mm 2 mps 749 mmHg 73%
09:00 +16°C° 0 mm 2 mps 749 mmHg 66%
10:00 +17°C° 0 mm 2 mps 749 mmHg 59%
11:00 +18°C° 0 mm 2 mps 749 mmHg 57%
12:00 +19°C° 0 mm 2 mps 749 mmHg 56%
13:00 +19°C° 0 mm 2 mps 749 mmHg 54%
14:00 +19°C° 0 mm 2 mps 749 mmHg 55%
15:00 +19°C° 0 mm 2 mps 749 mmHg 57%
16:00 +19°C° 0 mm 2 mps 749 mmHg 58%
17:00 +18°C° 0.1 mm 2 mps 749 mmHg 64%
18:00 +18°C° 0.1 mm 1 mps 749 mmHg 70%
19:00 +15°C° 0.1 mm 1 mps 749 mmHg 75%
20:00 +14°C° 0 mm 1 mps 749 mmHg 78%
21:00 +13°C° 0 mm 1 mps 749 mmHg 81%
22:00 +11°C° 0 mm 0 mps 749 mmHg 83%
23:00 +12°C° 0 mm 1 mps 749 mmHg 85%
Show more

We Need Your Consent

Meteoprog and our Service Providers may store and access personal data such as cookies, device identifiers or other similar technologies on your device and process such data to personalise content and ads, as well as provide social media features and to analyse the traffic.

  • Store and/or access information on your device

    Cookies, device identifiers or other information can be stored or accessed on your device for the purposes indicated above.

  • Personalised ads and content, ad and content measurement, audience insights, and products development

    Ads and content can be personalised based on a profile. More data can be added to better personalise ads and content. Ad and content performance can be measured. Insights about the audience who saw the ads and content can be derived. Such data can be used to develop or improve user’s experience, systems and software.

By clicking ‘I Agree’ you will allow the use of indicated cookies, device identifiers, web beacons or other similar technologies. Your settings can be changed in the browser on your device.

For certain purposes, legitimate interests may be relied on, rather than consent. You can read more about this in our Privacy and Cookie Policy.